Weather History for Metropolis, IL

Change the Weather History Date:

Tuesday, February 19, 2013

  Actual Average (KPAH) Record (KPAH)
Temperature  
Mean Temperature 36 °F 40 °F  
Max Temperature 44 °F 50 °F 71 °F (1994)
Min Temperature 28 °F 31 °F 1 °F (1978)
Degree Days  
Heating Degree Days 29 25  
Month to date heating degree days 515  
Since 1 July heating degree days 3088  
Cooling Degree Days 0 0  
Month to date cooling degree days 0  
Year to date cooling degree days 0  
Moisture  
Dew Point 20 °F    
Average Humidity 53    
Maximum Humidity 79    
Minimum Humidity 26    
Precipitation  
Precipitation 0.00 in 0.14 in 0.88 in (2002)
Month to date precipitation 2.66  
Year to date precipitation 6.34  
Snow  
Snow 0.00 in 0.20 in 1.90 in (2006)
Month to date snowfall 2.4  
Since 1 July snowfall 7.7  
Snow Depth -    
Sea Level Pressure  
Sea Level Pressure 30.12 in    
Wind  
Wind Speed 12 mph (WNW)    
Max Wind Speed 17 mph    
Max Gust Speed 26 mph    
Visibility 10 miles    
Events      
T = Trace of Precipitation, MM = Missing Value Source: NWS Daily Summary

Daily Weather History Graph

Daily Weather History Graph

Search for Another Location

Airport:

Trip Planner

Search our weather history database for the weather conditions in past years. The results will help you decide how hot, cold, wet, or windy it might be!

Date:

Astronomy

Feb. 19, 2013 Rise Set
Actual Time 6:38 AM CST 5:39 PM CST
Civil Twilight 6:12 AM CST 6:05 PM CST
Nautical Twilight 5:41 AM CST 6:36 PM CST
Astronomical Twilight 5:11 AM CST 7:06 PM CST
Moon 12:14 PM CST (2/19) 2:06 AM CST (2/19)
Length of Visible Light 11h 53m
Length of Day
11h 00m
Waxing Gibbous, 67% of the Moon is Illuminated
Feb 19
Waxing Gibbous
Feb 25
Full
Mar 4
Last Quarter
Mar 11
New
Mar 19
First Quarter

Hourly Weather History & Observations

Time (CST) Temp. Windchill Dew Point Humidity Pressure Visibility Wind Dir Wind Speed Gust Speed Precip Events Conditions
12:35 AM 42.6 °F 35.6 °F 36.3 °F 78% 29.89 in 10.0 mi WNW 13.8 mph 20.7 mph N/A   Overcast
1:15 AM 42.8 °F 36.6 °F 35.8 °F 76% 29.90 in 10.0 mi WNW 11.5 mph 19.6 mph N/A   Overcast
1:35 AM 42.4 °F 36.5 °F 36.0 °F 78% 29.92 in 10.0 mi West 10.4 mph 16.1 mph N/A   Overcast
1:55 AM 41.5 °F 33.5 °F 34.3 °F 76% 29.93 in 10.0 mi WNW 16.1 mph 21.9 mph N/A   Overcast
2:15 AM 39.9 °F 31.1 °F 32.9 °F 76% 29.95 in 10.0 mi WNW 17.3 mph 21.9 mph N/A   Overcast
2:35 AM 38.7 °F 30.1 °F 30.7 °F 73% 29.96 in 10.0 mi WNW 15.0 mph 23.0 mph N/A   Overcast
2:55 AM 37.9 °F 28.9 °F 29.8 °F 73% 29.96 in 10.0 mi WNW 16.1 mph 24.2 mph N/A   Overcast
3:35 AM 37.0 °F 29.8 °F 30.0 °F 76% 29.97 in 10.0 mi WNW 10.4 mph - N/A   Mostly Cloudy
3:55 AM 36.7 °F 31.2 °F 30.0 °F 77% 29.98 in 10.0 mi NW 6.9 mph - N/A   Overcast
4:15 AM 36.0 °F 31.1 °F 30.0 °F 79% 29.99 in 10.0 mi NW 5.8 mph - N/A   Overcast
4:35 AM 34.9 °F 29.0 °F 26.1 °F 70% 30.00 in 10.0 mi WNW 6.9 mph - N/A   Scattered Clouds
4:55 AM 34.3 °F 25.0 °F 25.7 °F 71% 30.01 in 10.0 mi WNW 13.8 mph 17.3 mph N/A   Clear
5:15 AM 34.0 °F 23.8 °F 25.5 °F 71% 30.01 in 10.0 mi West 16.1 mph - N/A   Clear
5:35 AM 33.8 °F 26.4 °F 24.8 °F 70% 30.03 in 10.0 mi WNW 9.2 mph 18.4 mph N/A   Clear
5:55 AM 33.1 °F 23.4 °F 23.0 °F 66% 30.04 in 10.0 mi WNW 13.8 mph 18.4 mph N/A   Clear
6:15 AM 32.9 °F 24.7 °F 24.8 °F 72% 30.05 in 10.0 mi West 10.4 mph - N/A   Clear
6:35 AM 32.5 °F 24.8 °F 25.3 °F 75% 30.05 in 10.0 mi West 9.2 mph - N/A   Clear
6:55 AM 32.4 °F 21.7 °F 23.0 °F 68% 30.06 in 10.0 mi West 16.1 mph 20.7 mph N/A   Clear
7:15 AM 32.4 °F 26.0 °F 22.8 °F 68% 30.07 in 10.0 mi West 6.9 mph - N/A   Clear
7:35 AM 32.9 °F 26.7 °F 22.8 °F 66% 30.08 in 10.0 mi West 6.9 mph - N/A   Clear
7:55 AM 33.4 °F 24.8 °F 21.2 °F 61% 30.08 in 10.0 mi West 11.5 mph 17.3 mph N/A   Clear
8:15 AM 33.8 °F 24.8 °F 20.5 °F 58% 30.09 in 10.0 mi WNW 12.7 mph 18.4 mph N/A   Clear
8:55 AM 34.9 °F 24.9 °F 19.8 °F 54% 30.11 in 10.0 mi WNW 16.1 mph 23.0 mph N/A   Clear
9:15 AM 35.2 °F 25.8 °F 20.3 °F 55% 30.11 in 10.0 mi West 15.0 mph 20.7 mph N/A   Clear
9:35 AM 35.6 °F 25.5 °F 19.8 °F 53% 30.12 in 10.0 mi West 17.3 mph 20.7 mph N/A   Clear
9:55 AM 36.7 °F 28.9 °F 21.4 °F 54% 30.12 in 10.0 mi West 11.5 mph 17.3 mph N/A   Clear
10:15 AM 36.7 °F 28.9 °F 21.0 °F 53% 30.13 in 10.0 mi West 11.5 mph - N/A   Clear
10:35 AM 37.0 °F 28.1 °F 20.3 °F 51% 30.14 in 10.0 mi West 15.0 mph 19.6 mph N/A   Clear
10:55 AM 37.8 °F 30.7 °F 20.5 °F 50% 30.14 in 10.0 mi West 10.4 mph 20.7 mph N/A   Clear
11:15 AM 38.5 °F 31.1 °F 20.5 °F 48% 30.14 in 10.0 mi WSW 11.5 mph 20.7 mph N/A   Clear
11:35 AM 39.4 °F 31.8 °F 21.4 °F 49% 30.14 in 10.0 mi WSW 12.7 mph 19.6 mph N/A   Clear
11:55 AM 40.3 °F 33.0 °F 20.8 °F 46% 30.14 in 10.0 mi West 12.7 mph 18.4 mph N/A   Clear
12:15 PM 40.3 °F 32.2 °F 20.1 °F 45% 30.14 in 10.0 mi West 15.0 mph 18.4 mph N/A   Unknown
12:35 PM 41.2 °F 33.4 °F 19.6 °F 42% 30.14 in 10.0 mi West 15.0 mph 23.0 mph N/A   Clear
12:55 PM 41.4 °F 34.0 °F 17.4 °F 38% 30.13 in 10.0 mi WNW 13.8 mph 21.9 mph N/A   Clear
1:15 PM 42.4 °F 35.3 °F 20.5 °F 42% 30.13 in 10.0 mi West 13.8 mph 17.3 mph N/A   Clear
1:35 PM 42.6 °F 35.2 °F 18.7 °F 38% 30.13 in 10.0 mi West 15.0 mph 24.2 mph N/A   Clear
1:55 PM 43.0 °F 35.4 °F 16.5 °F 34% 30.13 in 10.0 mi West 16.1 mph 21.9 mph N/A   Clear
2:15 PM 43.3 °F 36.5 °F 18.0 °F 36% 30.14 in 10.0 mi WSW 13.8 mph 18.4 mph N/A   Clear
2:35 PM 44.1 °F 37.4 °F 15.8 °F 32% 30.14 in 10.0 mi West 13.8 mph 20.7 mph N/A   Clear
2:55 PM 44.1 °F 37.4 °F 14.9 °F 31% 30.14 in 10.0 mi West 13.8 mph 23.0 mph N/A   Clear
3:15 PM 44.1 °F 37.1 °F 14.4 °F 30% 30.15 in 10.0 mi West 15.0 mph 25.3 mph N/A   Clear
3:35 PM 44.4 °F 36.9 °F 14.7 °F 30% 30.15 in 10.0 mi West 17.3 mph 24.2 mph N/A   Clear
3:55 PM 44.6 °F 37.2 °F 14.2 °F 29% 30.16 in 10.0 mi West 17.3 mph 26.5 mph N/A   Clear
4:15 PM 44.1 °F 39.0 °F 12.7 °F 28% 30.16 in 10.0 mi WNW 9.2 mph 26.5 mph N/A   Clear
4:35 PM 43.7 °F 36.9 °F 12.2 °F 28% 30.16 in 10.0 mi West 13.8 mph 18.4 mph N/A   Clear
4:55 PM 43.0 °F 35.4 °F 10.0 °F 26% 30.16 in 10.0 mi WNW 16.1 mph 24.2 mph N/A   Clear
5:15 PM 41.9 °F 35.9 °F 10.6 °F 28% 30.17 in 10.0 mi NW 10.4 mph 18.4 mph N/A   Clear
6:55 PM 38.3 °F 33.9 °F 9.5 °F 31% 30.19 in 10.0 mi NW 5.8 mph - N/A   Clear
7:15 PM 36.7 °F 32.9 °F 10.6 °F 34% 30.19 in 10.0 mi NW 4.6 mph - N/A   Clear
7:35 PM 35.8 °F 30.9 °F 11.5 °F 37% 30.20 in 10.0 mi NW 5.8 mph - N/A   Clear
8:15 PM 35.2 °F 28.8 °F 11.8 °F 38% 30.21 in 10.0 mi NW 8.1 mph - N/A   Clear
8:35 PM 34.3 °F 28.4 °F 13.5 °F 42% 30.23 in 10.0 mi NNW 6.9 mph - N/A   Clear
8:55 PM 33.1 °F 27.7 °F 14.2 °F 46% 30.24 in 10.0 mi NW 5.8 mph - N/A   Clear
9:15 PM 32.4 °F 26.9 °F 14.4 °F 48% 30.26 in 10.0 mi NW 5.8 mph - N/A   Clear
9:35 PM 32.0 °F 26.4 °F 14.9 °F 49% 30.27 in 10.0 mi NNW 5.8 mph - N/A   Clear
9:55 PM 31.6 °F 25.1 °F 14.7 °F 50% 30.27 in 10.0 mi NNW 6.9 mph - N/A   Clear
10:15 PM 31.8 °F 23.9 °F 14.0 °F 48% 30.26 in 10.0 mi NNW 9.2 mph - N/A   Clear
10:35 PM 31.1 °F 23.1 °F 14.2 °F 50% 30.26 in 10.0 mi NNW 9.2 mph - N/A   Clear
10:55 PM 30.2 °F 22.6 °F 14.7 °F 53% 30.26 in 10.0 mi NNW 8.1 mph - N/A   Clear
11:15 PM 29.5 °F 24.5 °F 14.9 °F 55% 30.27 in 10.0 mi NNW 4.6 mph - N/A   Clear
11:35 PM 28.9 °F 23.9 °F 15.6 °F 58% 30.28 in 10.0 mi North 4.6 mph - N/A   Clear
11:55 PM 28.2 °F 23.1 °F 17.2 °F 63% 30.29 in 10.0 mi NNW 4.6 mph - N/A   Clear